カタログに戻る

STARLINK-36651

運用中通信VLEO
NORAD 67840·PAYLOAD·🇺🇸 United States

打ち上げ Feb 16, 2026 から Vandenberg Space Force Base

Loading…

次のパス (今後24時間)

TLE

最新Source: CelesTrak SupGP

元期: Sep 14, 2026, 23:24 UTC

1 67840C 26033V   26257.97548611  .00039420  00000+0  14277-2 0  2579
2 67840  43.0021 278.0969 0001551 270.2358  49.1814 15.27559332    17

AllMySatでSTARLINK-36651をリアルタイム追跡

Download on the App Store